Dewpoint
13 13 15 14 10 12 16 14 12 8 7 11 11 10 7 6 3 1 5 5 6 4 4 5 6 3 4 2 4 5 17 24 25 35 43 50 46 40 45 52 53 54 55 57 58 59 58 59 60 61 61 62 64 65 66 66 66 67 65 66 66 67 67 66 66 65 65 65 65 65 64 65 66 65 66 66 67 67 68 65 66 65 65 65 66 66
11 12 13 12 8 12 16 19 22 18 20 15 12 7 3 2 2 2 5 8 5 16 5 8 3 5 6 8 8 11 16 18 26 30 38 40 44 45 44 50 51 52 52 54 59 60 58 56 60 61 62 63 63 64 66 65 66 66 66 66 66 67 67 66 66 66 66 66 66 65 64 65 65 65 64 65 67 66 65 66 66 65 65 66 66 67
17 12 12 12 10 13 21 24 22 25 26 21 13 7 5 5 3 3 9 10 8 9 9 3 2 3 8 8 8 12 13 20 23 25 33 34 35 40 46 51 52 53 56 55 57 61 58 58 59 61 62 63 64 65 65 66 66 66 66 66 66 66 67 66 66 67 65 66 67 65 66 66 65 66 67 66 67 66 66 67 67 65 66 66 65 65
23 12 10 8 14 16 24 27 27 27 26 20 16 11 8 4 4 2 16 10 9 10 9 7 6 8 10 12 13 13 8 18 17 17 22 32 36 36 36 48 51 56 56 57 56 59 59 58 58 60 62 64 64 64 65 66 66 66 65 66 66 66 65 66 67 65 65 66 66 68 68 66 67 67 67 66 67 66 65 67 65 65 66 65 62 62
11 9 7 6 13 21 27 27 27 24 19 22 18 11 6 4 -1 0 12 15 17 13 19 9 12 10 13 12 11 14 11 10 14 13 17 24 30 35 37 40 55 56 58 59 58 57 60 59 59 60 61 63 63 65 65 66 66 65 65 65 65 66 66 66 66 65 66 66 68 67 66 66 67 66 66 65 64 65 65 64 63 62 63 62 61 62
10 11 16 6 18 21 23 22 21 22 16 16 20 15 10 9 7 1 12 11 12 11 12 9 6 6 10 7 5 8 10 12 14 17 13 16 22 28 33 38 48 56 59 59 58 58 60 61 61 62 62 62 63 65 66 66 65 66 65 66 65 66 67 67 66 66 65 67 64 64 64 63 65 62 64 62 63 63 63 61 62 61 61 61 61 60
10 13 19 17 20 18 15 13 17 18 15 16 13 12 11 10 13 10 9 8 10 7 6 13 7 6 7 5 7 8 7 9 15 18 13 12 14 15 27 34 39 55 52 54 57 59 61 62 63 63 62 62 63 64 66 66 66 66 66 67 65 65 64 65 65 66 65 65 66 66 65 65 63 62 62 65 65 64 62 62 62 61 62 59 61 61
15 15 20 17 18 15 13 12 15 16 14 9 12 8 12 13 10 9 5 4 6 7 16 12 9 12 7 7 9 9 11 8 12 15 17 9 14 13 25 30 35 47 50 55 57 57 60 62 62 63 63 63 63 65 66 66 66 66 62 64 65 65 64 64 65 66 66 65 66 65 64 65 64 63 64 64 64 66 63 61 61 61 60 59 60 60
24 21 23 20 17 13 9 9 12 12 11 8 7 11 12 9 8 4 5 7 9 9 5 12 12 12 9 10 9 13 13 13 11 15 15 13 12 17 22 27 30 44 49 54 56 58 58 60 61 63 63 64 64 65 66 65 63 64 64 64 65 66 65 65 65 65 64 64 64 64 64 64 63 64 64 65 64 64 62 60 61 59 56 58 60 59
18 18 20 17 15 13 11 10 11 13 14 12 10 12 11 9 8 6 7 3 9 9 8 9 14 10 8 9 4 8 11 13 14 12 10 15 16 13 15 22 27 31 55 56 53 54 58 58 62 63 64 65 64 64 62 62 61 62 63 62 63 64 66 65 64 63 63 64 64 64 64 64 65 65 63 63 63 62 60 60 60 59 58 58 61 61
18 24 24 18 15 14 13 13 14 16 15 13 12 11 9 7 10 11 11 9 10 6 8 11 9 5 7 12 7 7 18 17 22 30 38 38 39 31 32 30 23 21 40 54 51 54 58 59 60 63 64 62 61 61 62 62 62 63 63 62 62 63 65 65 64 63 63 63 64 63 63 63 64 64 63 62 61 61 60 60 59 58 58 59 59 60
16 19 19 18 19 15 13 12 12 13 14 13 12 10 5 10 12 14 17 14 10 8 10 9 6 4 7 13 15 33 33 32 36 43 41 42 41 36 38 30 27 41 55 51 49 48 55 59 62 63 61 59 59 60 62 62 63 63 62 62 63 63 63 63 65 63 63 63 63 63 63 64 64 63 62 61 61 58 57 59 58 57 57 58 58 60
14 16 17 15 20 16 15 14 14 15 15 12 11 10 9 9 11 11 11 10 10 10 12 4 4 5 10 16 33 25 32 34 41 37 38 40 40 40 37 35 31 41 46 42 46 55 59 61 61 60 59 60 59 60 61 62 62 62 62 62 61 62 62 63 65 64 63 63 64 64 64 64 64 63 62 61 59 58 58 57 57 57 56 56 57 58
14 14 15 14 16 18 17 14 15 14 13 11 10 13 9 8 12 14 11 11 14 12 7 14 9 6 11 21 38 39 39 39 41 43 45 47 47 44 41 39 37 43 48 46 54 58 60 61 61 59 60 59 59 59 61 61 61 61 61 61 61 61 62 63 63 63 63 63 64 64 65 65 65 64 63 61 58 58 58 58 58 58 57 57 58 58
14 16 14 14 14 15 15 13 9 11 10 7 7 5 11 12 12 13 11 12 11 10 19 11 14 13 12 17 39 41 42 43 45 45 47 52 51 49 43 39 41 51 57 57 58 59 60 62 61 59 60 60 60 61 61 62 62 62 61 61 61 60 61 62 62 63 63 63 65 64 64 65 66 64 63 61 60 59 58 58 58 59 58 57 58 57
12 14 16 15 14 15 13 13 11 8 7 7 6 6 9 16 13 9 17 15 17 13 15 19 16 15 28 42 40 42 41 41 44 49 51 51 52 53 53 53 53 56 53 58 59 59 60 61 62 60 60 61 61 60 61 61 62 62 62 62 61 61 62 62 62 62 63 64 64 64 64 64 64 63 63 62 60 60 60 59 58 59 59 57 57 58
16 20 13 16 15 14 14 14 12 11 14 13 7 9 7 9 9 16 18 23 26 17 12 16 20 17 36 38 36 41 41 41 43 48 50 52 53 54 52 49 52 54 55 57 58 58 60 60 62 61 61 61 61 61 60 62 62 62 62 62 61 61 61 62 62 62 63 64 64 64 64 65 64 64 64 62 61 61 61 60 59 58 57 59 58 58
18 19 12 16 14 13 14 14 12 11 11 13 13 8 7 7 13 20 14 18 16 12 13 13 9 22 17 25 36 39 43 43 43 47 47 52 52 52 54 55 56 57 57 56 58 59 60 59 59 60 62 62 62 61 61 61 62 61 61 62 61 61 61 61 62 63 63 63 64 64 64 64 64 63 64 63 60 60 60 59 59 58 58 58 58 58
18 17 13 12 13 13 12 12 11 10 11 10 13 14 9 12 11 20 17 15 16 15 12 10 8 12 24 35 33 39 42 44 46 46 46 47 50 51 51 54 55 56 57 58 58 58 58 58 59 60 61 62 61 62 62 62 62 62 62 62 60 61 61 61 62 63 63 63 63 64 65 64 64 64 64 63 59 60 59 58 58 58 58 59 59 59
27 19 17 15 12 10 10 11 15 10 9 9 10 11 13 17 21 19 16 16 18 13 13 15 8 16 35 38 40 42 43 46 45 45 46 48 51 52 53 54 56 58 58 58 57 57 57 58 60 61 60 59 59 59 60 61 60 60 61 62 61 61 61 62 62 63 63 62 62 62 64 64 63 63 63 61 59 58 57 57 58 57 59 59 57 57
27 28 16 16 12 9 10 12 10 10 12 10 12 13 14 22 20 17 25 17 20 14 9 9 8 28 38 39 42 43 44 46 47 46 48 50 52 53 53 55 56 56 57 58 57 56 56 57 59 60 61 61 60 60 61 61 62 61 61 61 60 61 61 62 62 62 62 62 62 64 63 63 62 63 62 59 57 58 57 58 58 57 58 58 58 57
21 24 17 21 13 13 11 9 6 6 8 8 11 12 10 14 15 14 15 18 18 17 23 13 17 34 40 42 41 45 46 44 48 49 50 51 51 51 52 54 54 55 56 56 57 58 58 58 60 60 59 60 59 60 60 61 61 60 61 60 59 60 60 61 60 60 61 62 63 63 63 62 63 63 61 59 58 58 56 57 57 59 58 58 58 57
27 29 22 17 19 15 9 9 10 11 17 13 11 10 8 16 17 24 15 20 25 14 13 16 23 26 44 42 42 45 47 48 50 50 51 50 51 51 51 52 53 53 54 55 56 56 57 59 59 59 61 59 59 59 61 61 61 61 62 61 60 60 60 59 59 61 61 61 63 63 63 64 63 62 60 59 58 57 56 57 58 58 58 57 57 57
29 25 24 17 17 15 20 19 20 19 18 16 16 19 17 16 24 19 19 24 20 20 17 15 17 34 43 44 48 50 49 48 49 50 51 50 50 50 50 51 51 52 53 54 54 55 55 56 56 57 58 57 58 59 59 60 60 61 61 62 60 61 60 60 61 64 62 62 62 61 63 63 63 61 60 58 57 57 58 58 58 58 57 57 56 55
24 27 23 21 17 18 26 19 19 18 16 18 17 20 17 17 22 28 33 35 23 22 19 23 16 24 43 46 48 48 47 47 47 48 48 49 49 50 49 50 51 52 52 52 53 54 54 54 54 54 55 57 59 59 60 60 59 60 61 60 61 62 62 61 61 62 61 62 62 63 62 63 63 62 59 58 57 58 58 58 57 57 55 56 55 55
25 29 24 18 19 16 18 17 19 19 19 19 20 22 28 23 26 25 19 30 20 22 18 18 23 38 43 45 47 46 47 46 46 46 47 47 48 48 49 49 49 50 50 51 52 52 53 54 54 55 55 56 57 57 59 60 58 60 60 60 62 61 60 61 60 61 62 63 62 62 63 64 63 63 60 57 58 58 58 58 56 56 56 53 53 55
30 33 30 30 28 26 29 28 28 27 28 18 27 28 30 28 24 31 29 21 17 28 26 38 34 37 39 44 44 44 45 45 45 45 45 45 46 47 47 47 48 49 49 49 50 51 51 53 53 54 54 54 55 56 57 59 59 59 60 60 61 61 60 62 61 61 59 59 61 60 63 62 62 62 60 58 58 58 57 57 57 55 54 53 53 53
35 33 34 38 37 29 28 29 26 26 26 31 32 29 27 33 35 36 25 23 37 25 16 38 40 39 41 41 42 43 44 44 44 44 44 44 45 45 45 46 47 47 48 48 48 48 49 49 50 51 52 52 53 53 54 56 59 59 58 59 59 61 60 60 61 60 60 59 60 60 61 62 62 62 58 58 57 57 57 57 57 56 55 54 52 50
35 29 35 38 37 29 27 27 30 29 36 39 37 37 37 36 37 37 39 38 36 29 24 37 41 40 40 40 41 41 42 42 42 42 43 45 44 44 44 43 44 44 45 46 47 47 47 48 48 48 49 50 51 51 53 55 55 57 58 59 58 60 60 60 61 60 59 59 59 60 60 61 62 62 60 57 56 55 55 56 56 56 55 54 52 51
39 33 38 37 33 32 30 29 30 32 32 31 32 32 35 38 40 40 40 38 40 41 37 39 42 40 39 39 40 41 42 42 42 42 42 42 42 42 42 41 41 42 43 44 45 45 46 46 47 47 48 48 49 51 52 53 54 55 56 56 58 59 59 61 61 60 60 60 61 60 59 59 60 60 60 58 56 56 56 56 57 57 55 53 51 50
37 32 38 37 34 33 35 30 28 30 33 34 33 34 35 37 36 37 38 40 40 42 42 41 40 38 38 40 40 41 41 41 40 40 41 41 41 41 40 40 40 41 41 42 43 44 45 45 45 45 46 47 48 49 50 51 52 54 54 55 56 58 60 60 60 60 60 59 59 58 59 58 58 58 58 57 57 57 55 55 56 55 54 53 52 53
37 31 38 36 32 31 35 33 33 32 36 34 35 35 35 37 37 38 36 40 41 38 40 40 37 36 38 39 39 39 39 39 39 39 39 40 39 39 39 39 39 39 40 40 41 42 43 43 44 45 45 47 47 48 48 49 51 52 52 53 54 55 57 59 59 58 59 58 59 57 56 56 56 56 57 57 56 56 56 56 55 54 54 55 55 54
38 35 32 32 30 30 34 34 31 33 35 32 31 34 35 36 37 36 37 39 39 40 36 33 37 38 38 39 38 38 38 38 38 38 39 39 38 38 38 39 39 39 39 39 40 41 41 41 42 44 45 46 46 47 48 49 49 49 50 51 52 53 53 54 55 55 56 59 58 57 57 56 56 56 57 56 56 58 57 56 57 57 57 58 59 59
38 37 33 37 31 31 34 35 37 31 26 28 34 37 36 35 36 37 37 37 39 39 37 38 38 39 38 38 38 37 37 37 38 38 38 38 38 38 38 39 39 38 39 39 40 40 41 41 41 41 44 46 48 49 49 49 49 49 50 51 51 51 51 51 51 52 53 56 58 57 57 58 56 56 56 58 57 56 55 56 55 57 57 58 57 57
37 37 33 38 30 30 34 36 29 27 26 34 37 36 37 38 35 36 37 37 37 39 39 37 37 37 36 36 36 36 36 36 37 37 38 38 38 38 38 39 38 38 38 38 39 40 41 41 41 41 41 41 43 48 47 46 46 48 48 48 48 49 49 49 49 49 51 52 55 57 57 56 56 56 55 55 55 55 54 55 55 55 55 57 57 56
34 33 33 32 33 32 31 30 25 27 32 36 36 37 37 37 34 37 37 37 37 37 37 37 36 36 36 36 36 37 36 36 36 37 39 38 38 38 37 38 38 37 37 38 38 39 40 40 40 40 40 41 40 39 40 42 44 44 46 47 46 46 47 48 48 48 48 48 49 53 54 54 54 55 54 54 54 54 53 53 53 53 54 54 55 55
39 39 35 31 36 28 26 28 29 33 32 33 32 34 36 33 34 34 30 35 37 37 37 36 36 36 36 36 36 37 37 36 35 35 38 38 39 38 38 38 39 38 39 38 39 39 39 40 40 39 39 40 39 39 39 39 40 40 41 42 44 45 46 46 46 46 46 46 47 48 50 52 52 50 49 51 52 50 52 52 54 54 53 52 51 51
36 35 37 35 27 28 27 27 29 29 26 29 34 35 37 38 38 37 35 35 38 38 39 37 35 35 36 36 35 36 38 35 33 34 37 37 38 38 38 38 38 38 38 40 41 41 41 39 39 39 38 38 39 39 38 38 38 37 37 38 39 41 45 45 45 45 46 46 46 46 47 47 49 49 49 48 49 48 48 50 50 49 49 49 49 47
34 36 38 33 28 25 25 23 25 26 27 32 33 35 36 37 38 37 35 30 37 38 39 38 37 36 36 36 37 38 39 35 32 34 35 35 35 36 36 36 37 38 39 40 40 38 38 38 38 38 38 37 36 37 37 38 38 37 37 37 37 37 38 41 44 45 45 46 46 46 47 46 44 45 44 44 44 46 46 45 45 46 47 47 47 48
34 35 33 29 30 28 27 26 25 29 29 33 34 34 35 38 39 36 30 29 36 39 39 38 37 37 38 39 40 39 37 32 32 34 36 38 37 37 37 36 36 37 39 39 39 40 39 38 37 38 38 37 37 37 36 36 36 37 37 36 36 36 36 36 37 37 39 40 41 41 42 42 40 40 40 40 41 42 43 43 43 43 43 43 43 43
29 26 30 29 26 27 28 26 28 30 33 35 34 35 35 38 37 30 27 30 37 39 39 38 37 38 39 41 41 36 38 35 35 37 39 38 38 38 38 38 39 38 38 38 39 40 39 38 37 38 40 39 38 37 37 36 36 36 36 36 36 36 37 37 36 36 37 37 38 39 39 40 40 40 39 38 39 40 41 42 43 43 43 42 42 42
28 29 25 26 25 25 26 23 26 29 33 34 35 36 36 36 29 29 34 37 37 39 38 38 38 38 40 40 39 39 39 38 39 39 39 39 39 38 37 36 36 37 38 39 39 40 40 40 39 39 39 40 40 38 36 36 36 36 35 36 36 37 37 37 37 37 36 36 36 37 38 39 40 41 42 41 40 40 39 39 40 41 40 41 42 42
28 28 23 25 28 25 27 25 23 24 31 36 36 35 35 32 32 35 36 39 40 38 38 38 40 40 39 37 37 38 39 39 39 38 38 38 38 38 38 36 37 35 35 37 38 39 39 39 40 40 40 40 41 41 38 36 36 36 36 35 36 37 37 36 37 36 37 36 37 37 38 39 40 41 41 41 41 41 41 41 41 40 40 39 39 40
30 25 24 27 30 25 25 26 26 29 32 36 35 33 35 36 36 37 38 38 40 39 39 38 38 38 37 37 38 38 38 38 38 38 38 37 36 37 36 35 34 34 34 34 34 36 38 40 40 40 40 41 41 43 42 39 38 38 37 38 37 37 37 36 36 35 36 36 36 37 37 37 39 40 40 40 40 40 41 41 40 39 40 40 41 40
30 30 30 28 30 29 28 29 31 33 35 35 37 37 37 38 38 38 38 39 39 39 39 38 38 38 38 38 38 39 38 37 36 37 37 37 36 35 34 33 33 33 34 34 34 34 34 34 38 39 39 38 41 42 43 43 41 40 39 39 38 37 37 36 35 36 35 36 36 37 36 38 38 39 39 39 39 39 38 39 39 37 38 39 37 37
32 32 33 31 30 32 32 33 34 33 34 35 36 37 38 38 38 38 38 38 39 40 42 40 41 40 39 38 37 38 38 36 36 36 37 37 36 34 33 32 32 32 33 33 34 33 32 34 35 37 38 36 37 38 39 39 38 41 42 43 44 40 39 37 36 36 35 35 35 36 36 38 37 37 38 38 36 37 37 38 36 36 36 36 35 35
26 27 27 29 30 27 28 34 33 33 34 35 35 36 37 37 37 37 37 37 39 40 40 40 40 40 40 41 39 38 37 35 34 35 35 35 34 35 34 33 33 32 32 33 34 35 33 34 33 33 34 35 36 35 35 36 36 36 36 36 37 38 38 36 36 35 35 35 35 36 36 37 37 36 37 39 37 37 37 36 36 37 36 36 37 37
20 26 25 27 28 28 30 32 31 31 32 33 34 35 36 36 37 37 37 37 37 40 40 40 41 40 40 38 38 38 38 35 33 33 33 34 35 34 34 35 36 35 35 34 34 33 33 34 34 33 33 33 35 36 35 35 35 35 36 36 36 36 36 36 35 35 35 35 34 34 35 35 34 35 35 35 35 35 36 38 39 38 37 36 37 37
23 26 18 23 26 29 31 30 29 30 30 31 33 35 36 37 36 37 37 37 37 37 38 38 39 38 39 40 39 38 38 38 34 33 32 32 34 35 33 33 33 37 39 38 36 35 34 34 34 34 34 34 34 34 34 34 34 34 35 35 36 36 36 36 36 36 36 36 35 35 34 35 35 35 36 36 35 35 35 35 37 39 39 38 36 36
19 19 23 24 22 24 26 28 31 25 26 29 31 34 35 35 36 36 35 35 35 35 35 35 37 39 41 41 40 38 36 35 36 37 34 33 32 33 35 35 34 34 35 37 37 37 35 35 35 35 35 35 35 34 34 34 33 34 33 33 34 35 36 36 35 35 34 34 35 35 35 36 34 35 35 36 35 37 36 33 35 36 36 37 35 35
26 28 28 18 20 21 27 28 29 29 30 31 31 31 30 29 31 33 34 36 35 35 35 35 35 36 38 39 41 40 39 39 39 40 39 37 33 33 33 32 32 33 32 33 34 35 35 34 34 33 32 33 33 34 34 34 34 33 33 33 33 33 34 34 33 33 33 33 33 32 34 34 34 34 34 34 35 37 36 37 36 34 34 35 35 35